If you wish to contribute or participate in the discussions about articles you are invited to join SKYbrary as a registered user

GCGM

From SKYbrary Wiki

Revision as of 19:01, 28 November 2011 by Timo.Kouwenhoven (Talk | contribs)
(diff) ← Older revision | Latest revision (diff) | Newer revision → (diff)
Jump to: navigation, search
Airport
Code GCGM
Name La Gomera
Region Europe
Territory Canary Islands ES.gif
Location San Sebastián de la Gomera
Elevation

218.236801 m716 ft

Coordinates 28° 1' 50" N, 17° 12' 45" W
All Airports
in GC
GCFV, GCGM, GCHI, GCLA, GCLP, GCRR, GCTS, GCXO
Runways
Designator Length Width Surface
9/27 1500 m4,921.26 ft 30 m98.425 ft ASP


METAR
Observation GCGM 291200Z 22007KT 170V260 9999 FEW030 25/16 Q1018 RMK CAB09 24006KT 160V290
Station La Gomera
Elevation 0 metres
Date/Time 29 July 2014 12:00:00
Wind direction 220°
Wind speed 07 kts
Clouds few clouds
Clouds code FEW
Temperature 25°C
Dew point 16°C
Humidity 57%
QNH 1018 hPa
Weather condition n/a


WX
Tag(s) Volcanic Ash

La Gomera Airport (IATA: GMZ) is an airport located near the village of Alajeró, Spain, 34 km18.359 nm
34,000 m
111,548.557 ft
southwest by road from the Gomera island's capital city, San Sebastián de la Gomera.

Personal tools